{"data":{"norad_id":58136,"epoch":"2026-05-25T03:12:11.744064Z","epoch_age_seconds":62649,"freshness":"FRESH","line1":"1 58136U 23162U   26145.13346926  .00073575  00000+0  19480-2 0  9999","line2":"2 58136  42.9966  57.6498 0011680 214.1847 145.8257 15.37393831144030","mean_motion":15.37393831,"eccentricity":0.001168,"inclination_deg":42.9966,"raan_deg":57.6498,"arg_perigee_deg":214.1847,"mean_anomaly_deg":145.8257,"bstar":0.001948,"rev_number":14403,"period_min":93.665004435679,"perigee_km":445.83966164015,"apogee_km":461.79911175948,"semimajor_km":6831.9563866998,"source":"CELESTRAK","updated_at":"2026-05-25T13:38:18.534707Z"}}